Location: Most
(50.5133°N, 13.6207°E)
Time: 11:08:44
(UTC+01:00)

SEEDS - Pass Details

Date: 03 December 2021
Orbit: 584 x 600 km, 97.6° (Epoch: 22 January)

Event Time Altitude Azimuth Distance (km) Brightness Sun altitude
Rises 05:08:59 0° 10° (N) 2,825 ? -24.1°
Reaches altitude 10° 05:11:11 10° 6° (N) 1,918 ? -23.8°
Enters shadow 05:11:48 14° 4° (N) 1,665 ? -23.7°
